Home   Weather   Fushun   Past weeks
Flag for China

Past Weather in Fushun, Liaoning, China — Yesterday and Last 2 Weeks

Now
18 °F

Clear.


Feels Like: 18 °F
Forecast: 55 / 24 °F
Wind: 1 mph from North

Location: Shenyang / Taoxian

Current Time: Apr 5, 2020 at 6:18:47 am

Latest Report: Apr 5, 2020 at 5:30 am


Visibility: 3 mi

Pressure: 30.36 "Hg

Humidity: 68%

Dew Point: 9 °F

Location of FushunLocation

Past Weather in Fushun — Graph

°F

Fushun Temperature Yesterday

Maximum temperature yesterday: 46 °F (at 1:00 pm)
Minimum temperature yesterday: 27 °F (at 11:00 pm)
Average temperature yesterday: 39 °F

High & Low Weather Summary for the Past Weeks

 TemperatureHumidityPressure
High68 °F (Apr 3, 1:30 pm)93% (Mar 26, 8:00 pm)30.42 "Hg (Mar 26, 8:00 pm)
Low19 °F (Apr 5, 4:30 am)9% (Mar 28, 2:00 pm)29.86 "Hg (Apr 3, 3:30 pm)
Average44 °F36%30.11 "Hg
* Reported Mar 21 5:00 am — Apr 5 5:00 am, Fushun. Weather by CustomWeather, © 2020

Note: Actual official high and low records may vary slightly from our data, if they occured in-between our weather recording intervals... More about our weather records

Fushun Weather History for the Previous 24 Hours

Scroll right to see more
 ConditionsComfort  
Time TempWeatherWind HumidityBarometerVisibility
5:00 am
Sun, Apr 5
21 °FClear.1 mph58%30.36 "Hg4 mi
4:30 am19 °FClear.1 mph63%30.36 "Hg10 mi
3:00 am25 °FClear.1 mph50%30.36 "Hg10 mi
2:30 am25 °FClear.3 mph54%30.36 "Hg10 mi
2:00 am21 °FClear.1 mph54%30.36 "Hg10 mi
1:30 am21 °FClear.1 mph58%30.36 "Hg10 mi
1:00 am25 °FClear.1 mph46%30.39 "Hg10 mi
12:30 am25 °FClear.1 mph46%30.39 "Hg10 mi
12:00 am27 °FClear.1 mph43%30.39 "Hg10 mi
11:30 pm
Sat, Apr 4
30 °FClear.1 mph34%30.36 "Hg10 mi
11:00 pm27 °FClear.1 mph36%30.39 "Hg10 mi
10:30 pm28 °FClear.3 mph34%30.36 "Hg10 mi
10:00 pm28 °FClear.3 mph34%30.39 "Hg10 mi
9:30 pm36 °FClear.1 mph18%30.39 "Hg10 mi
9:00 pm34 °FClear.1 mph19%30.39 "Hg10 mi
8:30 pm36 °FClear.3 mph16%30.39 "Hg10 mi
8:00 pm37 °FClear.6 mph15%30.39 "Hg10 mi
7:30 pm37 °FClear.6 mph14%30.39 "Hg10 mi
7:00 pm41 °FClear.6 mph12%30.36 "Hg10 mi
6:30 pm43 °FPassing clouds.10 mph10%30.36 "HgN/A
6:00 pm43 °FPassing clouds.13 mph10%30.36 "HgN/A
5:30 pm45 °FSunny.10 mph10%30.36 "Hg10 mi
5:00 pm45 °FPassing clouds.10 mph10%30.36 "HgN/A
4:30 pm46 °FPassing clouds.13 mph10%30.36 "HgN/A
4:00 pm46 °FPassing clouds.10 mph10%30.36 "HgN/A
3:30 pm46 °FPassing clouds.13 mph10%30.36 "HgN/A
3:00 pm46 °FPassing clouds.13 mph10%30.36 "HgN/A
2:30 pm46 °FPassing clouds.15 mph10%30.36 "HgN/A
2:00 pm46 °FPassing clouds.17 mph11%30.36 "HgN/A
1:30 pm46 °FPassing clouds.15 mph11%30.36 "HgN/A
1:00 pm46 °FPassing clouds.13 mph11%30.39 "HgN/A
12:30 pm45 °FPassing clouds.15 mph12%30.39 "HgN/A
12:00 pm45 °FPassing clouds.17 mph13%30.39 "HgN/A
11:30 am45 °FPassing clouds.15 mph13%30.39 "HgN/A
11:00 am43 °FPassing clouds.15 mph13%30.39 "HgN/A
10:30 am43 °FPassing clouds.15 mph12%30.42 "HgN/A
10:00 am43 °FPassing clouds.13 mph13%30.42 "HgN/A
9:30 am41 °FSunny.17 mph14%30.42 "Hg10 mi
9:00 am39 °FSunny.15 mph17%30.42 "Hg10 mi
8:30 am39 °FPassing clouds.13 mph17%30.42 "HgN/A
8:00 am37 °FSunny.17 mph20%30.42 "Hg10 mi
7:30 am37 °FPassing clouds.13 mph20%30.39 "HgN/A
7:00 am37 °FPassing clouds.10 mph23%30.39 "HgN/A
6:30 am36 °FSunny.10 mph23%30.39 "Hg10 mi
6:00 am34 °FPassing clouds.8 mph27%30.39 "HgN/A
Weather by CustomWeather, © 2020

See weather overview

Advertising